Location: *
(55.5817°S, 142.4781°W)
Time: 07:38:43
(UTC+00:00)

USA 290 - Pass Details

Date: 29 April 2025
Orbit: 396 x 423 km, 73.6° (Epoch: 16 April)

Event Time Altitude Azimuth Distance (km) Brightness Sun altitude
Exits shadow 16:00:21 - 229° (SW) 1,721 4.8 -7.5°
Reaches altitude 10° 16:00:51 10° 233° (SW) 1,552 4.5 -7.4°
Maximum altitude 16:03:31 22° 285° (WNW) 1,016 3.7 -7.1°
Drops below altitude 10° 16:06:10 10° 337° (NNW) 1,531 5.0 -6.7°
Sets 16:08:30 0° 353° (N) 2,385 6.2 -6.4°
